When you browse on this site, cookies collect data to enhance your experience and personalize the content and advertising you see.
Visit our Privacy Policy to learn more. By continuing to use the site, you agree to this use of cookies and data.
  • En España
  • Lista de países
  • Para 7 días
  • Temperatura del agua
  • Mapa Satelital
  • El tiempo en el mapa
  • Informadores
  • user-avatar
    Iniciar sesión

    Tiempo cada hora Punta Gorda

    Hoy, 23 Enero, Miércoles

    Tiempo Temperatura Precipitaciones Viento Presión Humedad
    00:00 +24°C° 0 mm 1 mps 761 mmHg 94%
    01:00 +23°C° 0 mm 1 mps 761 mmHg 95%
    02:00 +23°C° 0 mm 1 mps 760 mmHg 96%
    03:00 +21°C° 0 mm 0 mps 760 mmHg 97%
    04:00 +23°C° 0 mm 1 mps 760 mmHg 98%
    05:00 +23°C° 0 mm 1 mps 760 mmHg 98%
    06:00 +22°C° 0 mm 1 mps 760 mmHg 99%
    07:00 +24°C° 0 mm 1 mps 760 mmHg 92%
    08:00 +25°C° 0 mm 1 mps 761 mmHg 85%
    09:00 +25°C° 0 mm 0 mps 761 mmHg 79%
    10:00 +29°C° 0 mm 1 mps 760 mmHg 69%
    11:00 +30°C° 0 mm 1 mps 760 mmHg 60%
    12:00 +32°C° 0 mm 2 mps 760 mmHg 51%
    13:00 +32°C° 0 mm 2 mps 759 mmHg 50%
    14:00 +33°C° 0 mm 3 mps 758 mmHg 48%
    15:00 +33°C° 0 mm 3 mps 757 mmHg 47%
    16:00 +30°C° 0 mm 3 mps 758 mmHg 55%
    17:00 +28°C° 0 mm 3 mps 758 mmHg 62%
    18:00 +27°C° 0 mm 3 mps 758 mmHg 70%
    19:00 +26°C° 0 mm 3 mps 759 mmHg 76%
    20:00 +25°C° 0 mm 2 mps 759 mmHg 81%
    21:00 +24°C° 0 mm 2 mps 760 mmHg 87%
    22:00 +24°C° 0 mm 2 mps 760 mmHg 88%
    23:00 +24°C° 0 mm 2 mps 761 mmHg 89%

    Mañana, 24 Enero, Jueves

    Tiempo Temperatura Precipitaciones Viento Presión Humedad
    00:00 +23°C° 0 mm 2 mps 761 mmHg 90%
    01:00 +24°C° 0.1 mm 2 mps 761 mmHg 86%
    02:00 +24°C° 0.1 mm 3 mps 761 mmHg 82%
    03:00 +25°C° 0.1 mm 3 mps 761 mmHg 78%
    04:00 +24°C° 0 mm 3 mps 761 mmHg 80%
    05:00 +24°C° 0 mm 3 mps 761 mmHg 81%
    06:00 +24°C° 0 mm 3 mps 761 mmHg 83%
    07:00 +25°C° 0 mm 3 mps 762 mmHg 77%
    08:00 +27°C° 0 mm 3 mps 762 mmHg 72%
    09:00 +29°C° 0 mm 3 mps 763 mmHg 66%
    10:00 +30°C° 0.1 mm 3 mps 763 mmHg 61%
    11:00 +31°C° 0.1 mm 3 mps 762 mmHg 57%
    12:00 +33°C° 0.1 mm 3 mps 762 mmHg 52%
    13:00 +33°C° 0 mm 3 mps 761 mmHg 51%
    14:00 +33°C° 0 mm 3 mps 760 mmHg 51%
    15:00 +33°C° 0 mm 3 mps 760 mmHg 51%
    16:00 +30°C° 0 mm 2 mps 760 mmHg 59%
    17:00 +29°C° 0 mm 2 mps 760 mmHg 67%
    18:00 +27°C° 0 mm 1 mps 761 mmHg 75%
    19:00 +26°C° 0.4 mm 2 mps 761 mmHg 80%
    20:00 +25°C° 0.4 mm 2 mps 762 mmHg 85%
    21:00 +24°C° 0.4 mm 3 mps 763 mmHg 90%
    22:00 +24°C° 0.4 mm 3 mps 763 mmHg 91%
    23:00 +24°C° 0.4 mm 3 mps 762 mmHg 91%

    Pasado mañana, 25 Enero, Viernes

    Tiempo Temperatura Precipitaciones Viento Presión Humedad
    00:00 +24°C° 0.4 mm 2 mps 762 mmHg 91%
    01:00 +24°C° 0.2 mm 3 mps 762 mmHg 91%
    02:00 +24°C° 0.2 mm 3 mps 761 mmHg 91%
    03:00 +22°C° 0.2 mm 3 mps 761 mmHg 91%
    04:00 +22°C° 0.1 mm 3 mps 761 mmHg 91%
    05:00 +23°C° 0.1 mm 2 mps 762 mmHg 91%
    06:00 +23°C° 0.1 mm 2 mps 762 mmHg 90%
    07:00 +24°C° 0 mm 2 mps 762 mmHg 85%
    08:00 +26°C° 0 mm 2 mps 763 mmHg 79%
    09:00 +27°C° 0 mm 2 mps 764 mmHg 74%
    10:00 +28°C° 0.1 mm 2 mps 763 mmHg 70%
    11:00 +29°C° 0.1 mm 2 mps 763 mmHg 65%
    12:00 +30°C° 0.1 mm 2 mps 763 mmHg 61%
    13:00 +29°C° 0.5 mm 2 mps 762 mmHg 69%
    14:00 +28°C° 0.5 mm 3 mps 762 mmHg 76%
    15:00 +26°C° 0.5 mm 3 mps 761 mmHg 84%
    16:00 +26°C° 0.4 mm 2 mps 761 mmHg 85%
    17:00 +25°C° 0.4 mm 2 mps 762 mmHg 87%
    18:00 +24°C° 0.4 mm 2 mps 762 mmHg 88%
    19:00 +24°C° 0.5 mm 2 mps 763 mmHg 89%
    20:00 +24°C° 0.5 mm 2 mps 763 mmHg 90%
    21:00 +24°C° 0.5 mm 3 mps 764 mmHg 91%
    22:00 +22°C° 0.4 mm 3 mps 764 mmHg 92%
    23:00 +23°C° 0.4 mm 2 mps 763 mmHg 93%

    26 Enero, Sábado

    Tiempo Temperatura Precipitaciones Viento Presión Humedad
    00:00 +23°C° 0.4 mm 2 mps 763 mmHg 94%
    01:00 +23°C° 0.1 mm 2 mps 763 mmHg 93%
    02:00 +23°C° 0.1 mm 2 mps 762 mmHg 93%
    03:00 +23°C° 0.1 mm 2 mps 762 mmHg 93%
    04:00 +23°C° 0 mm 2 mps 762 mmHg 93%
    05:00 +21°C° 0 mm 2 mps 762 mmHg 93%
    06:00 +21°C° 0 mm 2 mps 762 mmHg 93%
    07:00 +23°C° 0 mm 2 mps 763 mmHg 86%
    08:00 +25°C° 0 mm 2 mps 763 mmHg 79%
    09:00 +26°C° 0 mm 2 mps 764 mmHg 72%
    10:00 +27°C° 0.1 mm 2 mps 763 mmHg 68%
    11:00 +28°C° 0.1 mm 2 mps 763 mmHg 64%
    12:00 +29°C° 0.1 mm 1 mps 762 mmHg 60%
    13:00 +28°C° 0.4 mm 1 mps 762 mmHg 68%
    14:00 +27°C° 0.4 mm 1 mps 761 mmHg 76%
    15:00 +26°C° 0.4 mm 1 mps 760 mmHg 84%
    16:00 +25°C° 0.2 mm 1 mps 760 mmHg 86%
    17:00 +24°C° 0.2 mm 1 mps 760 mmHg 89%
    18:00 +24°C° 0.2 mm 1 mps 761 mmHg 92%
    19:00 +23°C° 0 mm 1 mps 761 mmHg 93%
    20:00 +23°C° 0 mm 1 mps 762 mmHg 94%
    21:00 +22°C° 0 mm 1 mps 762 mmHg 96%
    22:00 +22°C° 0 mm 1 mps 762 mmHg 96%
    23:00 +22°C° 0 mm 1 mps 761 mmHg 96%

    27 Enero, Domingo

    Tiempo Temperatura Precipitaciones Viento Presión Humedad
    00:00 +22°C° 0 mm 1 mps 761 mmHg 97%
    01:00 +22°C° 0 mm 1 mps 761 mmHg 97%
    02:00 +22°C° 0 mm 1 mps 760 mmHg 97%
    03:00 +21°C° 0 mm 1 mps 760 mmHg 97%
    04:00 +21°C° 0 mm 1 mps 760 mmHg 97%
    05:00 +21°C° 0 mm 1 mps 760 mmHg 97%
    06:00 +21°C° 0 mm 1 mps 760 mmHg 97%
    07:00 +23°C° 0 mm 1 mps 761 mmHg 86%
    08:00 +26°C° 0 mm 1 mps 761 mmHg 76%
    09:00 +28°C° 0 mm 1 mps 762 mmHg 65%
    10:00 +30°C° 0 mm 1 mps 761 mmHg 59%
    11:00 +31°C° 0 mm 1 mps 760 mmHg 52%
    12:00 +33°C° 0 mm 1 mps 760 mmHg 46%
    13:00 +34°C° 0 mm 2 mps 759 mmHg 47%
    14:00 +34°C° 0 mm 2 mps 758 mmHg 47%
    15:00 +33°C° 0 mm 3 mps 757 mmHg 48%
    16:00 +30°C° 0 mm 3 mps 757 mmHg 56%
    17:00 +29°C° 0 mm 3 mps 758 mmHg 65%
    18:00 +27°C° 0 mm 3 mps 758 mmHg 74%
    19:00 +26°C° 0 mm 3 mps 758 mmHg 81%
    20:00 +25°C° 0 mm 2 mps 759 mmHg 88%
    21:00 +24°C° 0 mm 2 mps 759 mmHg 95%
    22:00 +24°C° 0 mm 1 mps 759 mmHg 95%
    23:00 +23°C° 0 mm 1 mps 759 mmHg 96%

    28 Enero, Lunes

    Tiempo Temperatura Precipitaciones Viento Presión Humedad
    00:00 +23°C° 0 mm 1 mps 759 mmHg 97%
    01:00 +23°C° 0.1 mm 1 mps 759 mmHg 97%
    02:00 +23°C° 0.1 mm 1 mps 759 mmHg 97%
    03:00 +23°C° 0.1 mm 1 mps 758 mmHg 97%
    04:00 +23°C° 0.1 mm 1 mps 759 mmHg 97%
    05:00 +23°C° 0.1 mm 1 mps 759 mmHg 97%
    06:00 +23°C° 0.1 mm 1 mps 759 mmHg 97%
    07:00 +25°C° 0.1 mm 1 mps 759 mmHg 89%
    08:00 +26°C° 0.1 mm 1 mps 760 mmHg 82%
    09:00 +28°C° 0.1 mm 1 mps 760 mmHg 74%
    10:00 +28°C° 0.7 mm 2 mps 760 mmHg 74%
    11:00 +29°C° 0.7 mm 2 mps 759 mmHg 75%
    12:00 +29°C° 0.7 mm 2 mps 759 mmHg 75%
    13:00 +30°C° 0.3 mm 2 mps 758 mmHg 68%
    14:00 +31°C° 0.3 mm 1 mps 758 mmHg 61%
    15:00 +32°C° 0.3 mm 1 mps 757 mmHg 54%
    16:00 +31°C° 0 mm 1 mps 757 mmHg 60%
    17:00 +29°C° 0 mm 2 mps 757 mmHg 66%
    18:00 +27°C° 0 mm 2 mps 758 mmHg 72%
    19:00 +27°C° 0 mm 2 mps 758 mmHg 77%
    20:00 +26°C° 0 mm 1 mps 759 mmHg 82%
    21:00 +25°C° 0 mm 1 mps 759 mmHg 87%
    22:00 +24°C° 0 mm 1 mps 759 mmHg 89%
    23:00 +24°C° 0 mm 1 mps 759 mmHg 90%
    Mostrar más